TimeCDT,TemperatureF,Dew PointF,Humidity,Sea Level PressureIn,VisibilityMPH,Wind Direction,Wind SpeedMPH,Gust SpeedMPH,PrecipitationIn,Events,Conditions,WindDirDegrees,DateUTC
12:56 AM,64.9,60.1,84,29.88,-9999.0,NNW,9.2,-,N/A,,Unknown,340,2013-06-29 05:56:00
1:56 AM,64.0,60.1,87,29.87,-9999.0,NNW,10.4,-,N/A,,Unknown,340,2013-06-29 06:56:00
2:56 AM,63.0,57.9,84,29.88,-9999.0,NNW,11.5,-,N/A,,Unknown,340,2013-06-29 07:56:00
3:56 AM,62.1,57.9,86,29.87,-9999.0,North,11.5,-,N/A,,Unknown,350,2013-06-29 08:56:00
4:56 AM,61.0,57.0,87,29.89,-9999.0,NNW,11.5,-,N/A,,Unknown,340,2013-06-29 09:56:00
5:56 AM,60.1,57.9,93,29.91,-9999.0,NNW,11.5,-,N/A,,Unknown,340,2013-06-29 10:56:00
6:56 AM,62.1,57.9,86,29.93,-9999.0,NNW,12.7,-,N/A,,Unknown,340,2013-06-29 11:56:00
7:56 AM,64.9,60.1,84,29.94,-9999.0,North,16.1,-,N/A,,Unknown,350,2013-06-29 12:56:00
8:56 AM,66.9,60.1,79,29.95,-9999.0,North,15.0,-,N/A,,Unknown,350,2013-06-29 13:56:00
9:56 AM,69.1,60.1,73,29.96,-9999.0,North,17.3,-,N/A,,Unknown,10,2013-06-29 14:56:00
10:56 AM,72.0,60.1,66,29.96,-9999.0,North,15.0,-,N/A,,Unknown,10,2013-06-29 15:56:00
11:56 AM,73.9,59.0,59,29.96,-9999.0,NNE,16.1,19.6,N/A,,Unknown,20,2013-06-29 16:56:00
12:56 PM,75.0,59.0,57,29.96,-9999.0,North,12.7,21.9,N/A,,Unknown,10,2013-06-29 17:56:00
1:56 PM,77.0,59.0,54,29.94,-9999.0,NNE,16.1,21.9,N/A,,Unknown,30,2013-06-29 18:56:00
2:56 PM,79.0,57.9,48,29.94,-9999.0,NNE,16.1,21.9,N/A,,Unknown,20,2013-06-29 19:56:00
3:56 PM,79.0,54.0,42,29.94,-9999.0,NNE,16.1,24.2,N/A,,Unknown,30,2013-06-29 20:56:00
4:56 PM,80.1,54.0,40,29.94,-9999.0,NNE,15.0,23.0,N/A,,Unknown,30,2013-06-29 21:56:00
5:56 PM,80.1,54.0,40,29.94,-9999.0,North,13.8,-,N/A,,Unknown,10,2013-06-29 22:56:00
6:56 PM,79.0,55.9,45,29.94,-9999.0,North,10.4,-,N/A,,Unknown,360,2013-06-29 23:56:00
7:56 PM,77.0,55.9,48,29.94,-9999.0,NNE,11.5,-,N/A,,Unknown,20,2013-06-30 00:56:00
8:56 PM,73.0,57.0,57,29.94,-9999.0,NNE,6.9,-,N/A,,Unknown,30,2013-06-30 01:56:00
9:56 PM,66.0,57.9,75,29.96,-9999.0,NNE,5.8,-,N/A,,Unknown,20,2013-06-30 02:56:00
10:56 PM,64.9,59.0,81,29.98,-9999.0,NNW,5.8,-,N/A,,Unknown,340,2013-06-30 03:56:00
11:56 PM,63.0,59.0,87,29.99,-9999.0,NW,5.8,-,N/A,,Unknown,320,2013-06-30 04:56:00